Location: ??????????
(54.8537°N, 38.8755°E)
Time: 23:52:17
(UTC+00:00)

Tiros 1 despin weight - Pass Details

Date: 22 September 2024
Orbit: 573 x 614 km, 48.2° (Epoch: 07 October)

Event Time Altitude Azimuth Distance (km) Brightness Sun altitude
Rises 03:12:31 0° 270° (W) 2,885 - -0.5°
Exits shadow 03:12:47 - 269° (W) 2,796 ? -0.5°
Reaches altitude 10° 03:15:26 10° 252° (WSW) 1,980 ? -0.1°
Maximum altitude 03:18:29 18° 210° (SSW) 1,526 ? 0.3°
Drops below altitude 10° 03:21:33 10° 167° (SSE) 1,976 ? 0.7°
Sets 03:24:27 0° 149° (SSE) 2,877 ? 1.2°
